Location: Wapato
(46.4478°N, 120.4212°W)
Time: 15:21:31
(UTC+00:00)

Vanguard 2 Rocket - Pass Details

Date: 19 May 2026
Orbit: 553 x 3286 km, 32.9° (Epoch: 7 June)

Event Time Altitude Azimuth Distance (km) Brightness Sun altitude
Rises 01:16:06 0° 274° (W) 7,007 13.0 21.3°
Reaches altitude 10° 01:23:22 10° 258° (WSW) 6,190 12.7 20.1°
Maximum altitude 01:33:38 17° 227° (SW) 5,597 11.6 18.3°
Drops below altitude 10° 01:43:30 10° 194° (SSW) 5,850 11.1 16.6°
Sets 01:50:10 0° 177° (S) 6,464 11.1 15.5°
